Regional Weather Roundup
Issued by NWS Charleston, SC

Current Version | Previous Version | Graphics & Text | Print | Product List | Glossary On
Versions: 1 2 3 4 5 6 7 8 9 10 11 12 13 14 15 16 17 18 19 20 21 22 23 24 25 26 27 28 29 30 31 32 33 34 35 36 37 38 39 40 41 42 43 44 45 46 47 48 49 50
000 ASUS42 KCHS 060828 RWRCHS REGIONAL WEATHER ROUNDUP NATIONAL WEATHER SERVICE CHARLESTON SC 400 AM EDT FRI MAY 06 2016 NOTE: "FAIR" INDICATES FEW OR NO CLOUDS BELOW 12,000 FEET WITH NO SIGNIFICANT WEATHER AND/OR OBSTRUCTIONS TO VISIBILITY. NOT ALL STATIONS ARE QUALITY CONTROLLED. USE DATA WITH CAUTION... ESPECIALLY DEWPOINT OBSERVATIONS. SCZ027-030-031-034>040-042>050-060900- ...SOUTHEAST SOUTH CAROLINA... CITY SKY/WX TMP DP RH WIND PRES REMARKS N CHARLESTON PTCLDY 50 45 83 W7 29.76R WATERFRONT PRK N/A 53 47 79 VRB3 29.74F MOUNT PLEASANT FAIR 52 46 82 W7 29.75S JOHNS ISLAND FAIR 50 46 87 W8 29.76S PINOPOLIS N/A 57 48 72 NW15 29.67S MONCKS CORNER FAIR 46 41 81 CALM 29.75S SUMMERVILLE FAIR 46 46 100 CALM 29.77S BEAUFORT MCAS CLEAR 50 45 83 NW6 29.78S BEAUFORT ARPT FAIR 52 45 76 NW7 29.78S HILTON HEAD IS CLEAR 52 46 82 W6 29.80S WALTERBORO SUNNY 46 46 100 W3 29.79R ALLENDALE FAIR 48 46 93 CALM 29.78F ...SOUTHERN MIDLANDS AND PEE DEE... CITY SKY/WX TMP DP RH WIND PRES REMARKS GEORGETOWN FAIR 46 43 87 W7 29.74S KINGSTREE PTSUNNY 48 45 87 W6 29.74S ORANGEBURG MOCLDY 51 45 79 W7 29.77S BARNWELL FAIR 48 48 100 CALM 29.78F AIKEN CLOUDY 45 43 93 W5 29.80S MANNING CLOUDY 50 45 81 CALM 29.74F COLUMBIA CLOUDY 54 46 74 W6 29.75S SUMTER CLOUDY 51 46 84 W7 29.72S FLORENCE CLOUDY 51 48 89 W7 29.72S MYRTLE BEACH CLEAR 48 39 71 W7 29.73S N MYRTLE BEACH CLEAR 48 45 89 W6 29.70S $$ GAZ063-065-086>088-099>101-113>116-118-119-134>141-150-060900- ...SOUTHEAST GEORGIA... CITY SKY/WX TMP DP RH WIND PRES REMARKS SAVANNAH ARPT CLEAR 50 44 80 NW8 29.81R HUNTER AAF PTCLDY 51 45 82 W8 29.78R FORT STEWART CLEAR 51 44 77 CALM 29.79S STATESBORO PTCLDY 51 48 91 NW5 29.81S SYLVANIA SUNNY 49 47 93 CALM 29.81S CLAXTON FAIR 48 47 94 W5 29.82S ...CSRA...CENTRAL AND FAR SOUTHEAST GEORGIA... CITY SKY/WX TMP DP RH WIND PRES REMARKS THOMSON PTCLDY 46 45 95 CALM 29.85S AUGUSTA-BUSH CLEAR 47 43 86 W6 29.79F AUGUSTA-DANIEL CLEAR 50 41 71 W7 29.80S SWAINSBORO FAIR 45 43 93 NW6 29.82F VIDALIA CLEAR 50 43 76 NW3 29.82S EASTMAN FAIR 47 42 82 NW3 29.87S HAZLEHURST FAIR 48 45 87 W3 29.84S ALMA CLEAR 50 43 77 W5 29.84S WAYCROSS CLEAR 49 44 82 NW7 29.84S JESUP FAIR 50 46 87 NW5 29.83S BAXLEY FAIR 50 46 87 CALM 29.83S BRUNSWICK PTCLDY 55 50 82 W6 29.83S SAINT SIMONS CLEAR 53 45 74 VRB6 29.81S $$ SCZ027-028-034-036>038-045-046-048>050-GAZ119-141-060900- ...LAKE AND SUPPLEMENTAL COASTAL OBSERVATIONS... STATION/POSITION TIME TEMP WIND PRES WAVE SWELL AIR SEA DIR/SP/G HT/PER HT/PER/DIR (UTC) (F) (DEG/KT/KT) (MB) (FT/S) (FT/S/D) WINYAH BAY 0700 50 300/ 6 1005.0F LAKE MURRAY 0800 53 300/ 4/ 9 1007.5R ACE BASIN NERRS 0700 51 300/ 1 1008.0S FORT PULASKI 0800 54 73 300/ 13/ 16 1009.0R SAPELO ISLAND 0800 54 310/ 10 1009.0S $$ ANZ835-935-AMZ111-154-330-350-352-354-370-450-454-472-060900- ...C-MAN AND BUOY OBSERVATIONS... STATION/POSITION TIME TEMP WIND PRES WAVE SWELL AIR SEA DIR/SP/G HT/PER HT/PER/DIR (UTC) (F) (DEG/KT/KT) (MB) (FT/S) (FT/S/D) BUOY 41004 0750 59 73 320/ 14/ 17 1006.4R 5/ 7 3/ 7 BUOY 41008 NOT AVBL FOLLY BEACH CMAN 0800 51 290/ 4/ 6 1007.6S CAPERS NEARSHORE 0808 56 70 320/ 14/ 17 1006.8S FRIPP NEARSHORE 0808 56 68 330/ 12/ 16 1007.5R STATION/POSITION TIME TEMP WIND PRES WAVE SWELL AIR SEA DIR/SP/G HT/PER HT/PER/DIR (UTC) (F) (DEG/KT/KT) (MB) (FT/S) (FT/S/D) 5E ST. MARYS GA 0721 71 N/A 3/ 4 FRYING PAN BUOY 0800 59 72 280/ 14/ 19 1004.9S BUOY 41025 0750 56 77 340/ 8/ 10 1003.3F 4/ 8 5/ 50/ 8 CAPE LOOKOUT NC 0800 56 300/ 7/ 9 1003.4S BUOY 41002 0750 68 73 290/ 14/ 17 1005.2R 8/ 8 7/260/ 8 BUOY 41010 0720 71 78 320/ 2/ 4 1007.5F ST AUGUSTINE FL 0800 58 69 320/ 10/ 13 1010.5R $$

USA.gov is the U.S. government's official web portal to all federal, state and local government web resources and services.